Welcome to the New NWS' Forecast!
Most changes are behind the scenes, but click here for differences you might notice.
Latest weather observations around

San Jose, San Jose International Airport (KSJC)

Using English Units (Switch to International System of Units)
Date/ Time (PST) Wind (mph) Vis. (mi) Weather Sky Cond. Temp (°F) Rel. Humidity Wind Chill (°F) Heat Index (°F) Pressure Precip. (in)
Air Dwpt 6 hour Altimeter (inHg) Sea level (inHg) 1 hr 3 hr 6 hr
Max Min
Nov 16 13:53 NNW 5 2 Smoke and Haze FEW001 SCT006 BKN014 67 32     27%     29.96 29.96      
Nov 16 12:53 3 2 Smoke and Haze FEW001 BKN004 OVC014 65 31     28%     29.98 29.98      
Nov 16 11:53 Calm 1.75 Smoke and Haze FEW001 BKN004 OVC010 62 32     32%     30.01 30.01      
Nov 16 10:53 Calm 1.75 Smoke and Haze FEW001 BKN004 OVC010 57 34     42%     30.03 30.03      
Nov 16 09:53 SW 3 2 Clear   54 32     43%     30.04 30.04      
Nov 16 08:53 Calm 2 Smoke and Haze FEW001 BKN007 OVC018 48 31     51%     30.05 30.05      
Nov 16 07:53 S 3 2 Smoke and Haze FEW001 BKN007 OVC018 44 29     55% 43   30.04 30.04      
Nov 16 06:53 Calm 2 Smoke and Haze FEW001 BKN007 OVC018 42 28     57%     30.03 30.03      
Nov 16 05:53 Calm 1.75 Smoke and Haze FEW001 BKN006 OVC018 41 28     60%     30.03 30.03      
Nov 16 05:30 SSE 3 2 Haze and Smoke FEW001 BKN006 OVC018 42 28     57% 40   30.03        
Nov 16 05:23 Calm 2.5 Haze OVC018 42 28     57%     30.03        
Nov 16 05:16 ESE 3 3 Haze OVC018 40 28     62% 38   30.03        
Nov 16 04:53 Calm 2.5 Haze OVC018 41 29     62%     30.03 30.03      
Nov 16 03:53 Calm 2.5 Clear   41 28     60%     30.04 30.03      
Nov 16 03:34 SE 3 3 Haze OVC017 42 28     57% 40   30.04        
Nov 16 03:22 Calm 2.5 Haze OVC016 41 29     62%     30.04        
Nov 16 02:53 SSE 3 3 Haze OVC015 43 29     57% 41   30.05 30.04      
Nov 16 02:46 SE 3 3 Haze OVC015 42 29     59% 40   30.05        
Nov 16 02:26 Calm 1.25 Haze OVC015 43 30     60%     30.05        
Nov 16 02:06 SSE 3 2.5 Haze OVC016 44 30     58% 43   30.05        
Nov 16 01:53 SSE 3 3 Haze OVC016 42 30     62% 40   30.05 30.05      
Nov 16 00:53 Calm 2.5 Haze OVC015 46 30     53%     30.06 30.05      
Nov 16 00:07 S 3 2.5 Haze OVC016 47 30     52% 46   30.06        
Nov 15 23:53 Calm 3 Haze FEW001 BKN015 OVC030 47 29     49%     30.06 30.06      
Nov 15 22:53 Calm 2.5 Haze FEW001 BKN015 OVC030 48 30     50%     30.06 30.06      
Nov 15 21:53 SE 3 2.5 Haze FEW001 BKN020 OVC030 49 31     50% 48   30.06 30.06      
Nov 15 20:53 ESE 3 2 Haze FEW001 BKN020 OVC030 52 33     48%     30.07 30.07      
Nov 15 19:53 Calm 1.75 Haze FEW001 BKN020 OVC030 53 35     50%     30.07 30.07      
Nov 15 18:53 Calm 1.75 Haze FEW001 BKN020 OVC030 55 37     51%     30.07 30.07      
Nov 15 17:53 W 3 1.75 Haze FEW001 BKN020 OVC030 58 35     42%     30.07 30.07      
Nov 15 16:53 N 5 1 Haze FEW001 BKN020 BKN080 61 29     30%     30.07 30.07      
Nov 15 15:53 NNW 5 1.25 Haze FEW001 BKN020 OVC030 63 28     27%     30.07 30.07      
Nov 15 15:17 NNW 5 1.75 Haze FEW001 BKN020 OVC080 65 30     27%     30.07        
Nov 15 14:53 N 6 2 Haze FEW001 BKN020 OVC080 66 29     25%     30.07 30.07      
Nov 15 13:53 WNW 3 2.5 Haze FEW001 BKN020 OVC080 66        %     30.09 30.08      
Nov 15 12:53 Calm 2.5 Haze FEW001 BKN013 OVC020 64 27     24%     30.11 30.1      
Nov 15 11:53 WSW 3 2 Haze FEW001 BKN013 OVC020 60 28     29%     30.14 30.14      
Nov 15 10:53 Calm 2 Haze FEW001 BKN012 OVC020 56 28     34%     30.17 30.16      
Nov 15 09:53 WSW 3 2.5 Haze FEW001 BKN012 OVC020 51 28     41%     30.18 30.17      
Nov 15 08:53 Calm 2.5 Haze FEW001 BKN012 OVC020 50 26     39%     30.19 30.19      
Nov 15 07:53 Calm 2.5 Haze FEW001 BKN011 OVC020 44 26     49%     30.19 30.19      
Nov 15 06:53 Calm 2 Haze FEW001 BKN011 OVC020 41 27     57%     30.18 30.17      
Nov 15 05:53 Calm 2 Haze FEW001 BKN009 OVC018 42 27     55%     30.17 30.17      
Nov 15 05:42 Calm 2.5 Haze FEW001 SCT006 OVC018 41 27     57%     30.17        
Nov 15 05:38 Calm 3 Haze FEW001 SCT006 BKN018 41 27     57%     30.17        
Nov 15 05:24 Calm 3 Haze CLR 42 28     57%     30.17        
Nov 15 04:53 Calm 2.5 Haze CLR 41 26     55%     30.18 30.17      
Nov 15 03:53 SSE 3 2.5 Haze CLR 39 28     64% 37   30.18 30.17      
Nov 15 03:04 Calm 2.5 Haze SCT017 43 28     55%     30.19        
Nov 15 02:53 Calm 2.5 Haze BKN017 43 28     55%     30.2 30.19      
Nov 15 01:53 Calm 2.5 Haze BKN016 44 27     51%     30.21 30.2      
Nov 15 00:53 SE 5 2.5 Haze OVC018 44 27     51% 41   30.21 30.21      
Nov 15 00:06 SE 5 2.5 Haze OVC019 45 28     51% 43   30.22        
Nov 14 23:53 SE 5 3 Haze FEW001 SCT010 BKN021 46 28     49% 44   30.22 30.22      
Nov 14 22:53 S 3 3 Haze FEW001 SCT010 BKN019 49 30     48% 48   30.23 30.23      
Nov 14 21:53 SSE 3 3 Haze FEW001 SCT012 BKN019 49 29     46% 48   30.24 30.24      
Nov 14 20:53 SE 5 3 Haze FEW001 SCT012 BKN020 51 34     52%     30.24 30.23      
Nov 14 19:53 ESE 3 3 Haze FEW001 BKN022 OVC034 55 34     45%     30.24 30.24      
Nov 14 18:53 Calm 3 Haze FEW001 BKN022 OVC030 57 34     42%     30.24 30.23      
Nov 14 18:37 SSW 3 3 Haze FEW001 BKN022 OVC030 58 34     40%     30.23        
Nov 14 17:53 Calm 2.5 Haze FEW001 BKN022 OVC030 57 34     42%     30.23 30.23      
Nov 14 17:21 Calm 2 Haze FEW001 BKN022 OVC030 60 35     39%     30.23        
Nov 14 16:53 NW 6 1.5 Haze FEW001 SCT008 BKN020 60 34     37%     30.23 30.22      
Nov 14 15:53 NNW 8 2.5 Haze FEW001 SCT008 BKN020 63 35     35%     30.23 30.23      
Nov 14 14:53 NNW 7 2.5 Haze FEW001 SCT008 BKN020 66 29     25%     30.24 30.23      
Nov 14 13:53 NW 7 4 Haze FEW001 FEW008 BKN020 67 28     23%     30.24 30.24      
Nov 14 13:09 Calm 4 Haze FEW001 FEW008 BKN020 67 27     22%     30.26        
Nov 14 12:53 Calm 4 Haze FEW001 FEW008 SCT020 65 28     25%     30.27 30.26      
Nov 14 11:53 NNW 3 5 Haze FEW001 FEW008 SCT020 64 31     29%     30.31 30.3      
Nov 14 09:53 Calm 5 Haze FEW001 FEW008 SCT023 55 31     40%     30.36 30.35      
Nov 14 08:53 Calm 5 Haze FEW001 FEW008 SCT023 50 30     46%     30.37 30.36      
Nov 14 07:53 Calm 4 Haze FEW001 FEW008 SCT023 45 29     53%     30.36 30.36      
Nov 14 06:53 S 3 4 Haze FEW001 FEW008 SCT023 40 30     67% 38   30.36 30.36      
Nov 14 05:53 Calm 5 Haze FEW001 SCT018 41 30     65%     30.36 30.36      
Nov 14 04:53 S 5 6 Haze CLR 42 30     62% 39   30.36 30.36      
Nov 14 03:53 Calm 6 Haze CLR 42 30     62%     30.35 30.35      
Nov 14 02:53 SSE 5 5 Haze CLR 41 31     67% 38   30.36 30.35      
Nov 14 01:53 Calm 6 Haze CLR 45 32     60%     30.36 30.36      
Nov 14 00:53 SSE 5 5 Haze CLR 46 32     58% 44   30.36 30.36      
Nov 13 23:53 SSE 3 6 Haze FEW001 FEW009 SCT200 47 33     58% 46   30.37 30.36      
Nov 13 22:53 S 3 5 Haze FEW001 SCT023 BKN200 50 35     56%     30.38 30.37      
Nov 13 21:53 Calm 5 Haze FEW001 SCT025 BKN200 52 36     54%     30.38 30.38      
Nov 13 20:53 Calm 4 Haze FEW001 SCT025 BKN160 54 36     50%     30.37 30.36      
Nov 13 19:53 SSW 5 4 Haze FEW001 SCT028 BKN160 55 38     52%     30.35 30.35      
Nov 13 18:53 Calm 4 Haze FEW001 BKN026 OVC040 56 36     47%     30.36 30.36      
Nov 13 17:53 Calm 4 Haze FEW001 BKN026 OVC040 59 35     41%     30.36 30.36      
Nov 13 16:53 NNW 3 3 Haze FEW001 BKN026 OVC040 60 32     35%     30.36 30.36      
Nov 13 15:53 NNW 6 3 Haze FEW001 BKN030 OVC045 62 33     34%     30.37 30.36      
Nov 13 14:53 NW 5 4 Haze FEW001 BKN030 OVC045 62 30     30%     30.37 30.37      
Nov 13 13:53 W 3 4 Haze FEW001 BKN030 OVC047 62 28     27%     30.37 30.37      
Nov 13 12:53 NW 3 5 Haze FEW001 BKN030 OVC047 61 32     33%     30.38 30.37      
Nov 13 11:53 NE 5 5 Haze FEW001 BKN030 OVC047 61 30     31%     30.4 30.4      
Nov 13 10:53 Calm 5 Haze FEW001 BKN030 OVC060 57 30     36%     30.42 30.41      
Nov 13 09:53 Calm 5 Haze FEW001 BKN050 OVC100 54 31     41%     30.43 30.42      
Nov 13 08:53 Calm 5 Haze FEW001 BKN050 OVC070 50 28     42%     30.42 30.42      
Nov 13 07:53 Calm 5 Haze FEW001 SCT016 BKN055 47 27     46%     30.4 30.4      
Nov 13 06:53 Calm 5 Haze FEW001 SCT020 BKN055 45 27     49%     30.38 30.38      
Nov 13 05:53 Calm 8 Mostly Cloudy FEW001 SCT020 BKN040 44 27     51%     30.38 30.37      
Nov 13 04:53 Calm 7 Clear CLR 44 27     51%     30.36 30.36      
Nov 13 03:53 SSE 3 7 Clear CLR 43 27     53% 41   30.36 30.35      
Nov 13 02:53 Calm 7 Clear CLR 45 28     51%     30.36 30.36      
Nov 13 01:53 Calm 6 Haze CLR 48 27     44%     30.36 30.35      
Nov 13 00:53 Calm 6 Haze CLR 49 26     41%     30.35 30.35      
Nov 12 23:53 SW 3 6 Haze FEW001 SCT023 BKN050 50 25     37%     30.35 30.35      
Nov 12 22:53 SSE 5 5 Haze FEW001 SCT024 BKN050 50 26     39%     30.35 30.35      
Nov 12 21:53 Calm 5 Haze FEW001 FEW007 SCT024 50 29     44%     30.35 30.35      
Nov 12 20:53 S 3 5 Haze FEW001 FEW005 SCT025 55 29     37%     30.33 30.33      
Nov 12 19:53 Calm 5 Haze FEW001 FEW006 SCT025 56 28     34%     30.32 30.32      
Nov 12 18:53 SW 5 3 Haze FEW001 FEW009 SCT025 58 34     40%     30.31 30.31      
Nov 12 17:53 Calm 3 Haze FEW001 FEW009 SCT025 60 30     32%     30.3 30.29      
Nov 12 16:53 Calm 3 Haze FEW001 FEW009 SCT080 63 28     27%     30.29 30.29      
Nov 12 15:53 NNW 3 4 Haze FEW001 FEW009 SCT025 68 28     22%     30.28 30.27      
Nov 12 14:53 NNW 6 4 Haze FEW001 FEW009 SCT025 69 25     19%     30.28 30.27      
Nov 12 13:53 NNW 8 5 Haze FEW001 FEW009 SCT025 71 23     16%   69 30.27 30.26      
Nov 12 12:53 WNW 5 5 Haze FEW002 FEW009 SCT025 68 20     16%     30.27 30.27      
Nov 12 11:53 Calm 6 Haze FEW003 FEW018 SCT030 65 21     18%     30.29 30.29      
Nov 12 10:53 Calm 6 Haze FEW004 FEW019 SCT032 61 22     22%     30.31 30.31      
Nov 12 09:53 Calm 6 Haze FEW004 SCT020 SCT040 56 21     25%     30.31 30.3      
Nov 12 08:53 Calm 6 Haze FEW004 SCT025 SCT045 51 21     30%     30.31 30.3      
Nov 12 07:53 3 6 Haze FEW004 SCT028 SCT045 45 23     42% 44   30.29 30.29      
Nov 12 06:53 Calm 6 Haze FEW002 SCT028 SCT060 42 23     46%     30.27 30.27      
Nov 12 05:53 S 3 7 Clear CLR 43 22     43% 41   30.26 30.25      
Nov 12 04:53 Calm 8 Clear CLR 43 22     43%     30.25 30.24      
Nov 12 03:53 Calm 7 Clear CLR 44 25     47%     30.23 30.23      
Nov 12 02:53 Calm 7 Clear CLR 44 24     45%     30.23 30.23      
Nov 12 01:53 SSE 3 7 Clear CLR 44 22     41% 43   30.23 30.23      
Nov 12 00:53 SSE 3 8 Clear CLR 45 22     40% 44   30.22 30.22      
Nov 11 23:53 ESE 3 8 Mostly Clear FEW001 FEW011 48 21     34% 47   30.22 30.22      
Nov 11 22:53 SSE 5 7 Mostly Clear FEW001 FEW012 50 21     32%     30.21 30.21      
Nov 11 21:53 SE 5 6 Haze FEW001 SCT014 51 21     30%     30.21 30.21      
Nov 11 20:53 S 3 5 Haze FEW001 53 23     31%     30.18 30.18      
Nov 11 19:53 S 3 6 Haze FEW001 57 22     25%     30.16 30.15      
Nov 11 18:53 Calm 9 Mostly Clear FEW001 59 23     25%     30.14 30.14      
Nov 11 17:53 W 6 9 Partly Cloudy FEW001 SCT025 60 24     25%     30.12 30.11      
Nov 11 16:53 WNW 6 9 Partly Cloudy FEW001 SCT025 64 18     17%     30.11 30.11      
Nov 11 15:53 W 3 10 Partly Cloudy FEW001 SCT025 70 15     12%     30.09 30.09      
Nov 11 14:53 WNW 5 10 Partly Cloudy FEW001 SCT025 SCT100 71 13     11%   68 30.08 30.08      
Nov 11 13:53 WSW 6 10 Mostly Cloudy FEW001 SCT025 BKN100 72 14     11%   69 30.09 30.09      
Nov 11 12:53 WNW 6 10 Mostly Cloudy FEW001 SCT040 BKN100 70 13     11%     30.09 30.09      
Nov 11 11:53 W 7 10 Partly Cloudy FEW001 SCT040 SCT100 69 15     12%     30.1 30.09      
Nov 11 10:53 W 5 10 Partly Cloudy FEW001 SCT040 SCT120 66 14     13%     30.1 30.1      
Nov 11 09:53 NNW 7 10 Partly Cloudy FEW001 FEW020 SCT120 64 19     18%     30.1 30.1      
Nov 11 08:53 Calm 7 Partly Cloudy FEW001 FEW020 SCT040 58 26     29%     30.11 30.11      
Nov 11 07:53 WSW 6 5 Haze FEW001 FEW020 SCT050 51 23     33%     30.09 30.09      
Nov 11 06:53 5 3 Haze FEW001 FEW020 SCT050 44 26     49% 41   30.07 30.06      
Nov 11 05:53 ENE 7 4 Haze FEW001 SCT019 BKN029 44 27     51% 40   30.05 30.05      
Nov 11 04:53 3 4 Haze CLR 46 27     47% 45   30.03 30.02      
Nov 11 03:53 E 5 3 Haze FEW033 42 29     59% 39   30.02 30.02      
Nov 11 02:53 Calm 4 Haze BKN034 41 28     60%     30.03 30.03      
Nov 11 01:53 SE 3 4 Haze CLR 42 29     59% 40   30.04 30.03      
Nov 11 00:53 Calm 4 Haze CLR 43 29     57%     30.02 30.02      
Nov 11 00:06 Calm 4 Haze CLR 45 29     53%     30.01        
Nov 10 23:53 Calm 4 Haze FEW001 SCT015 BKN026 44 28     53%     30.01 30.01      
Nov 10 22:53 Calm 4 Haze FEW001 BKN024 OVC050 47 29     49%     30.01 30.01      
Nov 10 21:53 Calm 3 Haze FEW001 BKN026 OVC050 48 32     54%     30 30      
Nov 10 20:53 SE 6 3 Haze FEW001 BKN028 BKN050 48 30     50% 45   29.99 29.99      
Nov 10 19:53 Calm 3 Haze FEW001 BKN022 OVC046 52 37     57%     29.99 29.98      
Nov 10 18:53 Calm 3 Haze FEW001 BKN022 OVC045 54 38     55%     29.98 29.97      
Nov 10 17:53 Calm 3 Haze FEW001 BKN022 OVC035 56 38     51%     29.96 29.96      
Nov 10 16:53 Calm 3 Haze FEW001 BKN022 OVC035 59 36     42%     29.96 29.96      
Nov 10 15:53 NNW 6 3 Haze FEW001 BKN022 OVC035 61 30     31%     29.97 29.97      
Nov 10 14:53 N 7 3 Haze FEW001 BKN022 OVC040 62 24     23%     29.97 29.96      
Nov 10 13:53 NW 7 3 Haze FEW001 BKN022 OVC040 62 23     22%     29.98 29.97      
Nov 10 13:27 W 5 3 Haze FEW001 BKN022 OVC040 62 23     22%     29.98        
Nov 10 12:53 Calm 2.5 Haze FEW001 BKN022 OVC040 62 24     23%     30 30      
Nov 10 11:53 NNW 3 2 Haze FEW001 BKN026 OVC040 59 24     26%     30.04 30.03      
Nov 10 10:53 NNW 5 1.75 Haze FEW001 BKN026 OVC040 57 25     29%     30.05 30.05      
Nov 10 09:53 W 3 2 Haze FEW001 BKN026 OVC040 52 26     36%     30.06 30.06      
Nov 10 08:53 SE 5 1.75 Haze FEW001 BKN026 OVC040 48 22     35% 46   30.06 30.05      
Nov 10 07:53 SSW 3 2 Haze FEW001 BKN029 OVC050 43 24     47% 41   30.06 30.06      
Nov 10 06:53 Calm 2.5 Haze FEW001 SCT024 OVC050 42 22     44%     30.04 30.04      
Nov 10 05:53 Calm 4 Haze FEW001 SCT024 OVC050 42 23     46%     30.03 30.03      
Nov 10 04:53 Calm 4 Haze OVC041 42 24     49%     30.04 30.03      
Nov 10 03:53 ESE 3 4 Haze OVC033 44 23     43% 43   30.04 30.03      
Nov 10 02:53 Calm 4 Haze OVC032 44 24     45%     30.06 30.06      
Nov 10 01:53 Calm 4 Haze OVC036 45 24     44%     30.07 30.06      
Nov 10 01:11 S 3 4 Haze OVC030 47 23     39% 46   30.08        
Nov 10 00:53 Calm 4 Haze OVC029 46 24     42%     30.08 30.08      
Nov 10 00:06 Calm 4 Haze OVC025 47 24     40%     30.08        
Nov 09 23:53 Calm 4 Haze FEW001 SCT021 OVC046 49 24     37%     30.08 30.08      
Nov 09 22:53 S 7 4 Haze FEW001 SCT022 OVC050 51 24     35%     30.09 30.09      
Nov 09 21:53 SSE 5 4 Haze FEW001 SCT024 OVC050 53 25     33%     30.1 30.1      
Nov 09 20:53 S 3 4 Haze FEW001 SCT026 OVC055 56 26     31%     30.1 30.09      
Nov 09 19:53 SSW 3 4 Haze FEW001 BKN024 OVC060 56 31     38%     30.09 30.09      
Nov 09 18:53 Calm 5 Haze FEW001 BKN023 OVC060 59 34     39%     30.08 30.08      
Nov 09 17:53 NW 3 3 Haze FEW001 BKN023 OVC060 59 31     34%     30.07 30.07      
Nov 09 17:10 NNW 6 3 Haze FEW001 BKN023 OVC031 61 26     26%     30.07        
Nov 09 16:53 NW 6 2.5 Haze FEW001 BKN023 OVC031 63 26     24%     30.06 30.06      
Nov 09 16:48 NW 6 2.5 Haze FEW001 BKN023 OVC031 63 27     25%     30.06        
Nov 09 15:53 N 7 3 Haze FEW001 SCT014 OVC025 68 16     13%     30.07 30.06      
Nov 09 14:53 NNW 8 4 Haze FEW001 SCT014 BKN027 71 16     12%   68 30.08 30.07      
Nov 09 13:53 3 3 Haze FEW001 SCT014 BKN030 73 16     11%   71 30.09 30.09      
Nov 09 12:53 Calm 3 Haze FEW006 SCT014 BKN030 70 13     11%     30.11 30.11      
Nov 09 11:53 3 4 Haze FEW001 SCT016 BKN030 67 15     13%     30.14 30.14      
Nov 09 10:53 Calm 4 Haze FEW001 SCT020 BKN030 63 15     15%     30.17 30.16      
Nov 09 09:53 Calm 4 Haze FEW004 SCT009 BKN030 58 18     21%     30.18 30.18      
Nov 09 08:53 Calm 5 Haze FEW009 BKN030 53        %     30.19 30.18      
Nov 09 07:53 SSE 3 5 Haze FEW001 SCT009 BKN030 46 24     42% 45   30.17 30.17      
Nov 09 06:53 SSE 3 4 Haze SCT001 SCT004 BKN030 43 23     45% 41   30.16 30.16      
Nov 09 06:40 Calm 4 Haze and Smoke SCT001 SCT004 BKN030 44 23     43%     30.16        
Nov 09 05:53 SE 5 7 Mostly Cloudy FEW007 SCT014 BKN029 45 24     44% 43   30.16 30.15      
Nov 09 05:32 SSE 3 7 Mostly Cloudy FEW007 SCT014 BKN025 44 25     47% 43   30.16        
Nov 09 04:53 SE 3 10 Clear CLR 42 25     50% 40   30.15 30.14      
Nov 09 03:53 SE 3 9 Clear CLR 45 26     47% 44   30.15 30.14      
Nov 09 02:53 Calm 9 Clear CLR 46 25     43%     30.15 30.15      
Nov 09 01:53 ESE 5 10 Clear CLR 46 25     43% 44   30.16 30.15      
Nov 09 00:53 SE 3 8 Clear CLR 49 26     41% 48   30.15 30.15      
Nov 08 23:53 SE 3 9 Clear CLR 50 23     34%     30.14 30.14      
Nov 08 22:53 Calm 9 Mostly Clear FEW021 54 21     27%     30.14 30.14      
Nov 08 21:53 S 5 9 Partly Cloudy FEW010 SCT021 55 22     27%     30.14 30.14      
Nov 08 20:53 Calm 9 Partly Cloudy FEW010 SCT021 59 20     22%     30.12 30.12      
Nov 08 19:53 NW 5 10 Partly Cloudy FEW010 SCT021 63 16     16%     30.11 30.1      
Nov 08 18:53 NNW 8 10 Partly Cloudy FEW010 SCT021 66 15     14%     30.1 30.09      
Nov 08 17:53   9 Partly Cloudy FEW010 SCT021 68 15     13%     30.08 30.08      
Nov 08 16:53 NNW 7 8 Partly Cloudy FEW001 SCT021 SCT032 69 18     14%     30.06 30.06      
Nov 08 15:53 NNW 7 8 Partly Cloudy FEW001 SCT021 SCT032 71 16     12%   68 30.05 30.04      
Nov 08 14:53 N 9 8 Partly Cloudy FEW001 SCT021 SCT032 71 15     12%   68 30.05 30.04      
Nov 08 13:53   8 Mostly Cloudy FEW001 SCT021 BKN046 70 13     11%     30.05 30.05      
Nov 08 12:53 N 15 10 Partly Cloudy FEW014 SCT032 72 15     11%   69 30.05 30.04      
Nov 08 11:53 NNW 10 10 Clear CLR 70 14     11%     30.08 30.07      
Nov 08 10:53   10 Clear CLR 68 14     12%     30.09 30.09      
Nov 08 09:53 N 14 10 Clear CLR 67 15     13%     30.09 30.09      
Nov 08 08:53 NW 6 10 Clear CLR 64 16     15%     30.09 30.09      
Nov 08 07:53 WNW 6 10 Clear CLR 59 19     21%     30.08 30.08      
Nov 08 06:53 N 8 10 Clear CLR 58 18     21%     30.07 30.06      
Nov 08 05:53 NNW 9 10 Clear CLR 56 19     23%     30.06 30.06      
Nov 08 04:53 Calm 10 Clear CLR 51 25     36%     30.06 30.05      
Nov 08 03:53 WSW 6 10 Clear CLR 54 24     31%     30.04 30.04      
Nov 08 02:53 Calm 10 Clear CLR 54 28     37%     30.04 30.04      
Nov 08 01:53 ESE 3 10 Clear CLR 54 28     37%     30.04 30.03      
Nov 08 00:53 Calm 10 Clear CLR 57 26     30%     30.03 30.03      
Nov 07 23:53 Calm 10 Clear CLR 57 28     33%     30.03 30.02      
Nov 07 22:53 WSW 6 10 Clear CLR 57 33     40%     30.03 30.02      
Nov 07 21:53 Calm 10 Clear CLR 58 41     53%     30.02 30.01      
Nov 07 20:53 Calm 10 Clear CLR 59 43     55%     30.02 30.01      
Nov 07 19:53 WNW 6 10 Clear CLR 59 42     53%     30.01 30      
Nov 07 18:53 NW 9 10 Clear CLR 62 40     44%     30 30      
Nov 07 17:53 NNW 11 10 Clear CLR 66 42     42%     29.99 29.98      
Nov 07 16:53 NW 9 10 Mostly Clear FEW080 69 29     22%     29.98 29.97      
Nov 07 15:53 NNW 9 10 Mostly Clear FEW080 74 30     20%   72 29.99 29.98      
Nov 07 14:53 NNW 8 10 Clear CLR 75 31     20%   73 29.99 29.98      
Nov 07 13:53 N 9 10 Clear CLR 75 32     21%   73 30 29.99      
Nov 07 12:53 NNW 7 10 Clear CLR 71 38     30%   69 30.01 30.01      
Nov 07 11:53 NNW 6 10 Clear CLR 71 31     23%   69 30.03 30.03      
Nov 07 10:53 3 10 Clear CLR 67 32     27%     30.05 30.05      
Nov 07 09:53 Calm 10 Mostly Clear FEW009 63 32     31%     30.06 30.06      
May 15 09:53 Calm 10 Cloudy FEW021 BKN028 OVC035 60 47     62%     30.05 30.05      
May 14 23:53 WNW 11 10 Mostly Cloudy FEW010 SCT024 BKN045 56 49     77%     30.01 30.01      
May 14 15:53 WNW 13 10 Mostly Clear FEW025 FEW032 67 51     57%     29.96 29.96      
May 14 08:53 Calm 10 Cloudy FEW012 BKN019 OVC024 59 49     69%     30 30      
May 13 19:31 NW 14 10 Mostly Clear FEW008 63 50     63%     29.97        
May 13 02:53 SE 11 10 Clear CLR 56 49     77%     29.95 29.95      
May 12 00:53 E 3 10 Clear CLR 63 49     60%     29.81 29.8      
Jun 11 20:53 WSW 13 10 Clear   58 45     62%     29.98 29.98      
Jun 10 18:53   10 Partly Cloudy FEW025 SCT037 SCT065 66 45     47%     29.93 29.93      
Jun 10 12:53   10 Partly Cloudy FEW015 SCT032 SCT050 69 47     45%     29.98 29.97      
Notice The following observation data may not be complete
Jun 10 03:34   10 Mostly Cloudy BKN023          %              
Jun 09 00:53 NW 5 10 Clear   64 61     90%     29.96 29.96      
Jun 08 16:53 ESE 8 10 Cloudy FEW009 BKN038 OVC075 70 58     66%     29.99 29.98     0
Jun 07 14:53   10 Mostly Cloudy FEW050 SCT090 BKN130 71 53     53%   70 29.92 29.91      
Jun 07 06:53 Calm 7 Mostly Cloudy FEW001 SCT007 BKN010 58 52     81%     29.93 29.92      
Jun 06 04:53 NW 5 9 Clear CLR 55 52     89%     29.93 29.92      
Jun 06 03:53 NNW 6 9 Clear CLR 56 52     87%     29.92 29.92      
Jun 05 20:53 W 9 10 Partly Cloudy FEW002 FEW065 SCT110 65 53     65%     29.89 29.88      
Jun 05 12:53 NW 10 10 Mostly Clear FEW035 FEW090 79 51     38%   78 29.89 29.88